Location: Windsor
(43.2292°N, 89.3015°W)
Time: 09:32:37
(UTC+00:00)

Tiros 1 - Pass Details

Date: 04 June 2022
Orbit: 629 x 663 km, 48.4° (Epoch: 04 July)

Event Time Altitude Azimuth Distance (km) Brightness Sun altitude
Rises 02:41:58 0° 218° (SW) 2,905 10.4 -10.7°
Reaches altitude 10° 02:44:24 10° 210° (SSW) 1,999 9.5 -11.0°
Maximum altitude 02:48:39 38° 143° (SE) 957 7.5 -11.6°
Drops below altitude 10° 02:52:55 10° 75° (ENE) 2,006 9.4 -12.1°
Sets 02:55:21 0° 67° (ENE) 2,918 10.3 -12.4°
